SCP
0 0 0 0 0 0 0 0 0 0 0 0 0 0 0 0 0 0 0 0 0 0 0 0 0 0 0 0 0 0 0 0 0 0 0 0 0 0 0 0 0 0 0 0 0 0 0 0 0
0 0 0 0 0 0 0 0 0 0 0 0 0 0 0 0 0 0 0 0 0 0 0 0 0 0 0 0 0 0 0 0 0 0 0 0 0 0 0 0 0 0 0 0 0 0 0 0 0
0 0 0 0 0 0 0 0 0 0 0 0 0 0 0 0 0 0 0 0 0 0 0 0 0 0 0 0 0 0 0 0 0 0 0 0 0 0 0 0 0 0 0 0 0 0 0 0 0
0 0 0 0 0 0 0 0 0 0 0 0 0 0 0 0 0 0 0 0 0 0 0 0 0 0 0 0 0 0 0 0 0 0 0 0 0 0 0 0 0 0 0 0 0 0 0 0 0
0 0 0 0 0 0 0 0 0 0 0 0 0 0 0 0 0 0 0 0 0 0 0 0 0 0 0 0 0 0 0 0 0 0 0 0 0 0 0 0 0 0 0 0 0 0 0 0 0
0 0 0 0 0 0 0 0 0 0 0 0 0 0 0 0 0 0 0 0 0 0 0 0 0 0 0 0 0 0 0 0 0 0 0 0 0 0 0 0 0 0 0 0 0 0 0 0 0
0 0 0 0 0 0 0 0 0 0 0 0 0 0 0 0 0 0 0 0 0 0 0 0 0 0 0 0 0 0 0 0 0 0 0 0 0 0 0 0 0 0 0 0 0 0 0 0 0
0 0 0 0 0 0 0 0 0 0 0 0 0 0 0 0 0 0 0 0 0 0 0 0 0 0 0 0 0 0 0 0 0 0 0 0 0 0 0 0 0 0 0 0 0 0 0 0 0
0 0 0 0 0 0 0 0 0 0 0 0 0 0 0 0 0 0 0 0 0 0 0 0 0 0 0 0 0 0 0 0 0 0 0 0 0 0 0 0 0 0 0 0 0 0 0 0 0
0 0 0 0 0 0 0 0 0 0 0 0 0 0 0 0 0 0 0 0 0 0 0 0 0 0 0 0 0 0 0 0 0 0 0 0 0 0 0 0 0 0 0 0 0 0 0 0 0
0 0 0 0 0 0 0 0 0 0 0 0 0 0 0 0 0 0 0 0 0 0 0 0 0 0 0 0 0 0 0 0 0 0 0 0 0 0 0 0 0 0 0 0 0 0 0 0 0
0 0 0 0 0 0 0 0 0 0 0 0 0 0 0 0 0 0 0 0 0 0 0 0 0 0 0 0 0 0 0 0 0 0 0 0 0 0 0 0 0 0 0 0 0 0 0 0 0
0 0 0 0 0 0 0 0 0 0 0 0 0 0 0 0 0 0 0 0 0 0 0 0 0 0 0 0 0 0 0 0 0 0 0 0 0 0 0 0 0 0 0 0 0 0 0 0 0
0 0 0 0 0 0 0 0 0 0 0 0 0 0 0 0 0 0 0 0 0 0 0 0 0 0 0 0 0 0 0 0 0 0 0 0 0 0 0 0 0 0 0 0 0 0 0 0 0
0 0 0 0 0 0 0 0 0 0 0 0 0 0 0 0 0 0 0 0 0 0 0 0 0 0 0 0 0 0 0 0 0 0 0 0 0 0 0 0 0 0 0 0 0 0 0 0 0
0 0 0 0 0 0 0 0 0 0 0 0 0 0 0 0 0 0 0 0 0 0 0 0 0 0 0 0 0 0 0 0 0 0 0 0 0 0 0 0 0 0 0 0 0 0 0 0 0
0 0 0 0 0 0 0 0 0 0 0 0 0 0 0 0 0 0 0 0 0 0 0 0 0 0 0 0 0 0 0 0 0 0 0 0 0 0 0 0 0 0 0 0 0 0 0 0 0
0 0 0 0 0 0 0 0 0 0 0 0 0 0 0 0 0 0 0 0 0 0 0 0 0 0 0 0 0 0 0 0 0 0 0 0 0 0 0 0 0 0 0 0 0 0 0 0 0
0 0 0 0 0 0 0 0 0 0 0 0 0 0 0 0 0 0 0 0 0 0 0 0 0 0 0 0 0 0 0 0 0 0 0 0 0 0 0 0 0 0 0 0 0 0 0 0 0
0 0 0 0 0 0 0 0 0 0 0 0 0 0 0 0 0 0 0 0 0 0 0 0 0 0 0 0 0 0 0 0 0 0 0 0 0 0 0 0 0 0 0 0 0 0 0 0 0
0 0 0 0 0 0 0 0 0 0 0 0 0 0 0 0 0 0 0 0 0 0 0 0 0 0 0 0 0 0 0 0 0 0 0 0 0 0 0 0 0 0 0 0 0 0 0 0 0
0 0 0 0 0 0 0 0 0 0 0 0 0 0 0 0 0 0 0 0 0 0 0 0 0 0 1 0 0 0 0 0 0 0 0 0 0 0 0 0 0 0 0 0 0 0 0 0 0
0 0 0 0 0 0 0 0 0 0 0 0 0 0 0 0 0 0 0 0 0 0 0 0 1 1 1 1 1 1 1 0 1 1 1 1 0 0 0 0 0 0 0 0 0 0 0 0 0
0 0 0 0 0 0 0 0 0 0 0 0 0 0 0 0 0 0 0 0 0 0 0 0 1 1 1 1 1 1 1 1 1 1 1 1 0 0 0 0 0 0 0 0 0 0 0 0 0
0 0 0 0 0 0 0 0 0 0 0 0 0 0 0 0 0 0 0 0 0 0 0 0 1 1 1 1 1 1 1 1 1 1 1 1 0 0 0 0 0 0 0 0 0 0 0 0 1
0 0 0 0 0 0 0 0 0 0 0 0 0 0 0 0 0 0 0 0 0 0 0 0 0 1 1 1 1 1 1 1 1 1 1 0 0 0 0 0 0 0 0 0 0 0 0 1 1
0 0 0 0 0 0 0 0 0 0 0 0 0 0 0 0 0 0 0 0 0 0 0 0 0 1 1 1 1 1 1 0 0 1 0 0 0 0 0 0 0 0 0 0 0 0 1 1 1
0 0 0 0 0 0 0 0 0 0 0 0 0 0 0 0 0 0 0 0 0 0 0 0 0 0 0 0 0 0 0 0 0 0 0 0 1 1 1 1 1 0 0 0 0 0 1 1 1
0 0 0 0 0 0 0 0 0 0 0 0 0 0 0 0 0 0 0 0 0 0 0 0 0 0 0 0 0 0 0 0 0 0 0 0 1 1 1 1 1 0 0 0 1 0 1 1 1
0 0 0 0 0 0 0 0 0 0 0 0 0 0 0 0 0 0 0 0 0 0 0 0 0 0 0 0 0 0 0 0 0 0 0 0 1 1 1 1 0 0 0 1 1 0 0 1 1
Wind_Speed
10 7 5 5 6 2 9 8 7 7 6 6 5 4 6 7 7 7 5 5 5 7 8 9 7 6 7 7 7 7 8 8 8 8 8 8 8 8 8 9 9 9 9 9 8 8 9 8 8
6 4 6 6 2 6 10 8 9 8 7 5 5 4 6 7 7 6 5 5 6 7 7 8 8 7 7 7 7 7 7 8 7 7 7 7 7 7 8 8 8 7 7 7 7 8 8 8 8
5 6 6 2 6 9 9 8 8 7 6 4 4 5 6 6 5 5 6 7 7 7 6 9 7 7 7 7 7 7 7 7 7 7 6 6 7 7 7 7 7 6 6 6 6 7 6 7 7
5 6 5 2 10 10 8 7 6 6 6 5 4 6 6 6 4 6 8 7 7 7 7 10 7 8 7 6 6 6 6 6 6 6 5 6 6 6 6 6 6 5 5 5 5 6 6 6 5
5 5 2 7 11 9 7 6 4 5 5 5 5 6 8 6 6 8 7 7 7 7 7 10 8 7 6 6 6 5 6 5 5 5 5 5 5 5 5 6 6 5 5 4 5 5 5 5 5
5 3 4 9 11 8 7 5 4 5 6 6 5 6 8 7 7 7 7 6 7 7 7 9 9 7 7 6 5 5 5 5 5 5 4 4 4 5 4 5 5 5 5 5 4 4 4 4 4
4 3 7 8 9 8 7 5 5 6 6 6 4 6 7 7 7 7 6 6 6 6 6 6 8 8 8 6 6 5 5 4 4 3 3 3 3 4 4 4 4 5 5 5 5 4 4 4 4
5 2 6 7 8 9 7 5 5 5 7 6 3 4 6 7 7 7 6 6 5 6 5 5 5 5 6 7 7 5 5 4 4 3 2 2 4 5 5 5 4 4 5 6 6 6 5 5 4
5 1 7 8 7 8 6 5 6 5 7 6 5 6 8 10 8 7 6 5 5 4 4 4 4 4 3 4 7 6 6 5 4 4 4 4 3 3 5 3 3 4 5 6 6 6 6 7 7
3 5 9 7 6 5 5 4 5 4 6 6 7 8 10 10 9 7 6 6 6 4 4 3 3 3 3 3 4 3 3 4 2 1 2 2 1 1 1 5 4 3 4 6 6 7 8 8 4
3 5 6 5 4 3 4 4 3 3 4 5 6 9 10 9 8 7 5 4 5 4 3 3 3 2 2 2 2 2 1 2 2 2 2 1 1 1 1 1 4 4 5 3 5 6 4 2 2
2 3 4 4 3 2 3 3 3 3 5 5 6 8 9 8 7 7 6 5 5 4 4 3 4 3 2 1 1 2 1 1 1 1 1 1 0 0 0 0 0 1 1 1 1 1 2 2 3
1 3 3 2 2 2 2 3 3 4 5 6 7 8 8 7 6 6 6 6 5 5 4 4 3 3 3 2 1 1 1 1 1 1 1 0 0 0 1 1 1 1 0 1 1 1 1 2 3
3 2 1 1 2 3 3 4 3 5 6 7 7 7 7 6 6 6 5 5 5 5 5 4 4 4 3 3 2 1 1 1 1 1 1 1 1 0 0 1 1 1 1 1 1 1 1 2 2
2 2 3 3 2 2 3 4 4 6 6 7 7 6 6 6 5 5 5 4 4 4 4 5 5 5 4 3 3 2 2 1 1 1 1 1 1 0 1 1 1 1 1 0 1 1 1 2 2
5 3 3 5 2 2 4 5 7 6 7 6 6 6 6 5 5 5 5 4 4 4 4 4 4 5 5 3 2 2 1 1 1 1 1 1 1 1 2 1 1 1 1 1 0 1 1 2 2
3 1 4 5 2 1 2 4 7 6 6 6 6 6 6 6 5 5 5 5 4 4 5 5 4 4 4 4 3 3 2 2 1 1 1 1 1 1 2 1 1 2 1 1 1 0 2 2 2
3 3 3 4 3 1 1 2 5 6 6 6 6 6 6 6 6 5 5 5 5 5 5 5 5 5 4 4 4 3 2 2 2 1 1 1 1 1 2 1 1 2 1 1 1 1 2 2 2
5 5 3 4 2 2 1 2 3 5 5 6 6 6 6 6 6 5 5 5 6 6 6 6 5 5 5 4 4 3 3 2 2 1 1 1 2 1 2 2 0 1 1 2 2 2 1 2 2
5 5 2 2 2 2 1 1 2 3 4 4 5 6 6 6 6 6 6 6 6 6 6 6 6 6 6 4 3 2 2 2 1 0 1 1 2 2 1 1 2 1 1 1 2 2 2 2 1
5 4 4 3 1 4 3 3 3 4 3 3 4 5 5 5 6 7 7 7 7 7 7 6 6 6 6 5 4 3 3 2 2 2 1 1 1 2 1 1 2 2 2 1 2 2 3 2 1
3 2 4 4 5 1 4 2 4 4 4 4 4 5 5 5 6 7 7 7 7 7 7 7 6 6 6 5 4 4 3 2 1 1 1 1 1 1 1 2 2 2 2 1 2 1 2 3 2
4 3 5 6 6 5 3 5 4 4 2 3 3 4 4 4 5 5 6 7 6 6 6 6 6 6 5 5 5 4 3 2 2 2 2 2 2 2 2 2 2 2 2 2 2 2 3 3 3
3 5 6 7 8 5 2 5 0 2 0 1 3 3 3 3 4 4 5 5 5 6 5 5 6 5 5 5 5 5 4 3 3 3 2 3 2 2 2 2 1 2 2 2 2 3 2 2 3
8 8 6 7 6 2 1 5 1 3 2 2 2 3 3 3 4 4 4 5 5 6 6 5 6 5 5 6 5 5 5 5 4 4 3 3 2 2 1 2 2 2 2 2 2 2 3 3 3
7 10 8 7 6 3 4 3 2 3 3 2 2 3 4 4 4 4 4 5 5 5 6 6 6 5 5 5 5 4 4 4 3 3 3 3 2 1 1 2 2 2 2 3 2 3 3 2 3
7 8 7 9 8 8 3 2 3 3 2 2 3 4 4 4 4 4 4 4 5 5 5 5 6 5 5 5 4 4 4 3 2 2 3 2 2 2 2 2 2 2 2 3 3 3 3 3 4
7 6 7 7 8 9 6 5 2 2 1 1 2 3 4 4 4 4 3 3 3 4 4 4 4 4 4 5 4 4 4 4 3 2 2 2 2 2 2 3 3 3 3 3 4 3 2 3 3
7 7 7 7 8 10 8 2 3 1 1 1 2 3 3 3 4 4 3 3 3 3 4 4 4 4 4 4 4 4 4 4 3 3 3 3 2 2 3 4 4 4 4 4 4 4 3 4 3
7 7 8 8 7 8 10 1 4 2 2 1 2 3 3 3 3 4 3 3 4 4 3 4 3 4 4 4 4 4 4 3 3 3 3 3 3 3 3 3 4 4 4 4 4 4 4 4 4
Wind_Direction
196 204 222 237 230 111 65 62 60 63 61 57 52 38 39 30 18 54 79 105 110 116 120 130 125 123 123 122 119 118 118 118 120 123 125 125 126 129 133 140 145 148 151 153 151 151 152 151 149
191 200 233 240 298 74 66 58 61 54 68 77 70 53 55 58 51 82 103 112 125 120 124 120 124 127 125 125 124 123 119 118 121 123 127 130 131 133 136 139 141 148 154 156 155 154 156 159 163
198 226 260 262 48 53 63 61 66 74 75 68 70 53 41 55 71 83 96 124 128 122 121 112 125 127 125 125 123 123 122 121 124 124 128 135 139 138 136 139 143 148 150 153 156 159 163 168 173
221 225 232 58 68 59 57 67 75 87 81 68 75 81 74 62 68 89 111 125 128 124 121 112 126 128 125 124 122 122 120 121 126 126 127 130 134 138 140 146 152 155 154 155 158 160 162 167 170
243 255 129 79 69 64 64 63 64 67 69 76 78 88 85 77 86 105 118 125 124 119 116 117 124 128 129 130 128 128 126 123 127 125 126 129 135 143 151 158 163 161 158 158 159 166 169 172 173
247 251 59 70 72 69 66 63 62 65 78 88 92 96 87 97 107 115 116 115 114 114 116 118 129 134 135 134 130 129 125 122 123 126 127 126 132 142 150 156 168 169 170 170 167 172 174 177 182
302 15 57 64 74 75 66 56 50 64 73 72 79 95 107 112 115 123 119 119 111 113 114 122 134 142 148 142 134 129 125 123 122 124 122 126 144 155 158 168 179 181 179 179 177 182 187 187 188
303 311 68 64 64 70 79 75 60 60 71 77 71 88 113 127 133 133 127 120 119 119 121 124 123 131 152 149 142 140 139 135 137 139 142 176 185 181 181 183 179 184 185 188 187 193 202 203 199
271 327 58 50 52 73 96 95 86 79 97 95 75 71 106 129 139 137 134 131 129 124 125 130 131 146 153 143 140 160 159 159 176 167 178 220 204 174 173 146 157 192 199 202 198 200 211 216 205
303 34 51 40 37 67 92 87 100 115 110 107 107 105 123 140 146 143 143 142 137 141 144 141 137 150 146 143 145 164 161 148 177 145 181 210 167 210 189 137 176 196 204 203 200 207 215 227 212
8 24 37 44 49 66 92 92 101 95 84 91 119 130 141 149 151 149 147 143 136 152 150 151 139 150 156 149 151 136 145 139 164 154 181 180 220 175 190 165 179 189 200 204 186 206 215 217 244
26 28 19 35 57 72 75 88 90 67 61 81 114 135 147 155 156 153 153 158 151 160 161 153 145 154 167 161 151 167 164 147 146 135 238 169 169 206 100 175 251 200 181 190 202 207 197 228 245
48 33 38 53 91 96 108 90 81 85 90 107 124 141 153 156 154 153 156 163 165 170 171 160 167 159 164 170 223 162 161 161 149 171 162 283 220 199 72 23 329 297 293 201 219 230 223 236 242
6 358 25 93 110 136 128 114 115 103 121 129 141 151 160 159 160 156 159 164 177 180 172 165 178 167 176 183 189 200 206 181 241 164 147 258 239 69 358 241 284 300 312 341 299 263 239 249 260
264 240 142 109 125 137 170 130 112 125 145 145 152 156 160 165 170 172 168 174 180 179 169 171 178 174 180 191 198 194 212 198 200 136 177 249 273 135 263 272 263 314 320 285 253 274 262 247 250
227 223 104 88 80 140 243 83 110 145 163 159 162 161 167 171 181 181 178 180 180 180 171 179 185 174 178 186 203 210 224 201 207 200 188 195 287 289 282 298 305 314 272 255 254 278 289 283 281
201 19 51 89 93 132 261 66 118 158 173 169 174 174 177 174 181 184 187 185 183 182 177 180 189 183 179 180 190 202 196 218 227 220 248 184 230 260 272 316 339 281 281 294 288 20 297 292 295
1 358 16 44 82 257 279 64 127 167 190 183 183 182 185 185 184 183 188 188 184 181 184 186 186 187 186 184 185 196 198 202 206 208 227 261 246 247 281 251 288 291 308 315 338 311 291 288 293
316 311 345 36 57 292 339 41 122 162 190 194 191 189 191 192 184 181 185 186 185 186 186 190 191 180 191 194 201 195 193 199 195 192 181 226 256 262 268 292 280 289 322 319 308 297 269 289 306
273 281 322 63 63 290 326 34 125 160 191 198 197 199 198 191 187 184 185 187 191 190 193 194 190 186 192 189 201 211 227 215 182 166 132 241 246 260 244 282 278 273 289 289 296 289 301 309 306
264 293 320 334 277 203 263 166 145 156 179 186 206 214 207 201 197 190 193 195 194 193 198 199 195 191 193 187 190 186 189 203 186 186 185 230 249 248 287 274 279 274 254 243 260 275 286 305 306
269 336 297 284 268 213 286 305 120 153 170 181 200 207 207 199 197 192 191 194 200 197 192 194 191 192 189 190 200 201 202 201 196 213 196 209 212 235 229 241 249 259 265 267 261 272 287 285 291
309 305 277 272 264 256 230 283 106 137 169 170 183 198 199 196 194 187 188 189 193 191 187 184 183 186 189 196 199 209 214 211 209 199 181 227 199 218 227 235 255 258 265 282 300 302 293 290 296
236 235 234 239 251 251 293 281 30 96 329 166 155 164 168 172 176 177 176 177 180 178 179 178 171 174 183 193 201 208 211 218 227 222 217 219 207 213 219 233 258 266 288 286 277 281 275 293 302
229 248 244 235 236 254 141 269 16 53 53 35 98 136 142 146 155 158 162 164 168 170 173 174 172 176 181 188 197 204 209 212 220 232 219 244 238 217 225 259 259 275 277 282 279 265 288 280 274
239 259 273 283 283 261 189 259 76 80 82 88 99 122 122 127 131 142 152 156 161 165 171 173 173 178 180 185 191 199 204 214 217 227 252 239 257 263 265 252 254 265 272 273 270 270 261 261 266
244 254 280 274 273 275 250 198 172 150 142 123 122 123 121 121 121 131 144 153 160 163 169 175 175 176 177 182 184 187 195 216 226 217 234 244 243 244 234 248 254 257 259 267 266 264 275 273 268
270 265 248 262 277 273 256 241 241 168 154 134 137 131 127 130 124 123 131 142 153 161 165 166 169 173 176 180 192 180 187 201 217 233 243 267 260 258 255 251 255 259 257 254 257 259 259 265 267
214 229 258 268 275 281 282 285 59 139 161 142 123 141 143 141 129 123 127 134 146 151 155 166 177 178 181 190 194 201 194 196 212 223 241 249 259 256 248 249 249 254 256 256 255 268 268 262 268
258 252 247 255 262 270 281 284 95 131 154 141 123 133 146 143 128 121 118 131 145 149 156 165 184 190 190 187 194 199 203 206 212 215 237 249 253 253 255 257 253 254 257 258 258 264 268 263 262